Aufgelaufene Messwerte:
Wetterdaten: aktuell Montag, 31.08.2026 13:45
Datum Zeit Temp. Feuchte Luftdruck Regen Wind WRichtung WRichtung Sonnenschein Verdunstung UV-Index Solar Taupunkt Windchill Windböen Empfang
31.08.2026 13:45 20,9 °C 83 % 1006,9 hPa 0,0 mm 0,0 km/h (0 Bft) W-SW 257 ° 0 min 0,000 mm 0,0 UV-I 72 W/m² 17,9 °C 20,9 °C 4,8 km/h (1 Bft) 100,00 %
31.08.2026 13:40 20,7 °C 82 % 1007,0 hPa 0,0 mm 0,0 km/h (0 Bft) W-SW 240 ° 0 min 0,000 mm 0,0 UV-I 50 W/m² 17,5 °C 20,7 °C 0,0 km/h (0 Bft) 100,00 %
31.08.2026 13:35 20,6 °C 81 % 1007,1 hPa 0,0 mm 0,0 km/h (0 Bft) W 279 ° 0 min 0,000 mm 0,0 UV-I 43 W/m² 17,2 °C 20,6 °C 3,2 km/h (1 Bft) 97,39 %
31.08.2026 13:30 21,2 °C 81 % 1007,2 hPa 0,0 mm 0,1 km/h (0 Bft) SO 128 ° 0 min 0,000 mm 0,0 UV-I 37 W/m² 17,8 °C 21,2 °C 4,8 km/h (1 Bft) 96,00 %
31.08.2026 13:25 21,2 °C 81 % 1007,2 hPa 0,0 mm 0,1 km/h (0 Bft) SW 214 ° 0 min 0,000 mm 0,0 UV-I 37 W/m² 17,8 °C 21,2 °C 4,8 km/h (1 Bft) 97,32 %
31.08.2026 13:20 21,3 °C 80 % 1007,2 hPa 0,0 mm 0,0 km/h (0 Bft) S 173 ° 0 min 0,000 mm 0,0 UV-I 54 W/m² 17,7 °C 21,3 °C 0,0 km/h (0 Bft) 96,75 %
31.08.2026 13:15 21,3 °C 82 % 1007,2 hPa 0,0 mm 0,0 km/h (0 Bft) W 270 ° 0 min 0,000 mm 0,0 UV-I 87 W/m² 18,1 °C 21,3 °C 0,0 km/h (0 Bft) 98,23 %
31.08.2026 13:10 20,8 °C 85 % 1007,3 hPa 0,0 mm 0,0 km/h (0 Bft) W-SW 250 ° 0 min 0,000 mm 0,0 UV-I 83 W/m² 18,2 °C 20,8 °C 1,6 km/h (1 Bft) 100,00 %
31.08.2026 13:05 20,8 °C 83 % 1007,2 hPa 0,0 mm 0,8 km/h (0 Bft) N-NW 333 ° 0 min 0,051 mm 0,0 UV-I 54 W/m² 17,8 °C 20,8 °C 6,4 km/h (2 Bft) 99,20 %
31.08.2026 13:00 21,2 °C 81 % 1007,2 hPa 0,2 mm 1,4 km/h (1 Bft) S-SO 147 ° 0 min 0,000 mm 0,0 UV-I 54 W/m² 17,8 °C 21,2 °C 6,4 km/h (2 Bft) 98,28 %
31.08.2026 12:55 21,6 °C 80 % 1007,2 hPa 0,0 mm 0,1 km/h (0 Bft) SW 236 ° 0 min 0,000 mm 0,0 UV-I 68 W/m² 18,0 °C 21,6 °C 1,6 km/h (1 Bft) 99,10 %
31.08.2026 12:50 21,8 °C 83 % 1007,1 hPa 0,0 mm 0,8 km/h (0 Bft) SW 223 ° 0 min 0,000 mm 0,0 UV-I 112 W/m² 18,8 °C 21,8 °C 9,7 km/h (2 Bft) 99,19 %
31.08.2026 12:45 21,7 °C 84 % 1007,3 hPa 0,0 mm 0,3 km/h (0 Bft) S-SW 204 ° 0 min 0,000 mm 0,0 UV-I 101 W/m² 18,9 °C 21,7 °C 3,2 km/h (1 Bft) 99,12 %
31.08.2026 12:40 21,2 °C 84 % 1007,5 hPa 0,0 mm 0,0 km/h (0 Bft) S 191 ° 0 min 0,000 mm 0,0 UV-I 120 W/m² 18,4 °C 21,2 °C 1,6 km/h (1 Bft) 98,25 %
31.08.2026 12:35 20,8 °C 87 % 1007,5 hPa 0,0 mm 0,1 km/h (0 Bft) S-SO 160 ° 0 min 0,000 mm 0,0 UV-I 120 W/m² 18,6 °C 20,8 °C 1,6 km/h (1 Bft) 96,46 %
31.08.2026 12:30 20,2 °C 87 % 1007,5 hPa 0,0 mm 0,3 km/h (0 Bft) S-SW 200 ° 0 min 0,000 mm 0,0 UV-I 80 W/m² 18,0 °C 20,2 °C 6,4 km/h (2 Bft) 97,56 %
31.08.2026 12:25 20,1 °C 85 % 1007,5 hPa 0,0 mm 0,0 km/h (0 Bft) SW 221 ° 0 min 0,000 mm 0,0 UV-I 63 W/m² 17,5 °C 20,1 °C 0,0 km/h (0 Bft) 96,36 %
31.08.2026 12:20 20,7 °C 88 % 1007,5 hPa 0,0 mm 0,1 km/h (0 Bft) S-SW 193 ° 0 min 0,000 mm 0,0 UV-I 80 W/m² 18,6 °C 20,7 °C 4,8 km/h (1 Bft) 98,40 %
31.08.2026 12:15 20,7 °C 87 % 1007,5 hPa 0,0 mm 0,2 km/h (0 Bft) S-SW 192 ° 0 min 0,000 mm 0,0 UV-I 64 W/m² 18,5 °C 20,7 °C 6,4 km/h (2 Bft) 100,00 %
31.08.2026 12:10 20,8 °C 88 % 1007,4 hPa 0,0 mm 0,1 km/h (0 Bft) S 183 ° 0 min 0,000 mm 0,0 UV-I 66 W/m² 18,7 °C 20,8 °C 3,2 km/h (1 Bft) 97,48 %
31.08.2026 12:05 20,7 °C 88 % 1007,5 hPa 0,0 mm 0,0 km/h (0 Bft) S-SW 198 ° 0 min 0,000 mm 0,0 UV-I 86 W/m² 18,6 °C 20,7 °C 1,6 km/h (1 Bft) 98,39 %
31.08.2026 12:00 20,7 °C 89 % 1007,5 hPa 0,0 mm 0,0 km/h (0 Bft) SW 221 ° 0 min 0,050 mm 0,0 UV-I 85 W/m² 18,8 °C 20,7 °C 1,6 km/h (1 Bft) 100,00 %
31.08.2026 11:55 20,4 °C 90 % 1007,6 hPa 0,0 mm 0,1 km/h (0 Bft) S-SW 202 ° 0 min 0,000 mm 0,0 UV-I 75 W/m² 18,7 °C 20,4 °C 3,2 km/h (1 Bft) 98,32 %
31.08.2026 11:50 20,1 °C 90 % 1007,5 hPa 0,0 mm 0,0 km/h (0 Bft) S 191 ° 0 min 0,000 mm 0,0 UV-I 72 W/m² 18,4 °C 20,1 °C 0,0 km/h (0 Bft) 98,31 %
31.08.2026 11:45 20,1 °C 91 % 1007,6 hPa 0,0 mm 0,1 km/h (0 Bft) SW 235 ° 0 min 0,000 mm 0,0 UV-I 92 W/m² 18,6 °C 20,1 °C 1,6 km/h (1 Bft) 100,00 %
31.08.2026 11:40 19,7 °C 92 % 1007,8 hPa 0,0 mm 0,0 km/h (0 Bft) SW 220 ° 0 min 0,000 mm 0,0 UV-I 91 W/m² 18,4 °C 19,7 °C 1,6 km/h (1 Bft) 98,37 %
31.08.2026 11:35 19,5 °C 92 % 1007,8 hPa 0,0 mm 0,1 km/h (0 Bft) SW 228 ° 0 min 0,000 mm 0,0 UV-I 87 W/m² 18,2 °C 19,5 °C 3,2 km/h (1 Bft) 97,30 %
31.08.2026 11:30 19,4 °C 93 % 1008,0 hPa 0,0 mm 0,2 km/h (0 Bft) S-SW 192 ° 0 min 0,000 mm 0,0 UV-I 86 W/m² 18,2 °C 19,4 °C 4,8 km/h (1 Bft) 94,31 %
31.08.2026 11:25 19,1 °C 93 % 1007,9 hPa 0,0 mm 0,0 km/h (0 Bft) S-SW 198 ° 0 min 0,000 mm 0,0 UV-I 84 W/m² 17,9 °C 19,1 °C 1,6 km/h (1 Bft) 96,52 %
31.08.2026 11:20 18,8 °C 93 % 1007,9 hPa 0,0 mm 0,0 km/h (0 Bft) S-SW 198 ° 0 min 0,000 mm 0,0 UV-I 83 W/m² 17,6 °C 18,8 °C 1,6 km/h (1 Bft) 97,52 %
31.08.2026 11:15 18,7 °C 93 % 1007,8 hPa 0,0 mm 0,1 km/h (0 Bft) S 186 ° 0 min 0,000 mm 0,0 UV-I 83 W/m² 17,5 °C 18,7 °C 4,8 km/h (1 Bft) 100,00 %
31.08.2026 11:10 18,8 °C 93 % 1007,9 hPa 0,0 mm 0,1 km/h (0 Bft) S-SW 211 ° 0 min 0,000 mm 0,0 UV-I 81 W/m² 17,6 °C 18,8 °C 3,2 km/h (1 Bft) 100,00 %
31.08.2026 11:05 18,8 °C 94 % 1007,9 hPa 0,0 mm 0,2 km/h (0 Bft) S-SW 208 ° 0 min 0,000 mm 0,0 UV-I 79 W/m² 17,8 °C 18,8 °C 3,2 km/h (1 Bft) 99,11 %
31.08.2026 11:00 18,4 °C 94 % 1007,9 hPa 0,0 mm 0,2 km/h (0 Bft) S-SW 202 ° 0 min 0,051 mm 0,0 UV-I 77 W/m² 17,4 °C 18,4 °C 6,4 km/h (2 Bft) 100,00 %
31.08.2026 10:55 18,2 °C 94 % 1007,9 hPa 0,0 mm 0,1 km/h (0 Bft) S-SO 160 ° 0 min 0,000 mm 0,0 UV-I 77 W/m² 17,2 °C 18,2 °C 3,2 km/h (1 Bft) 100,00 %
31.08.2026 10:50 18,1 °C 94 % 1007,9 hPa 0,0 mm 0,3 km/h (0 Bft) S 178 ° 0 min 0,000 mm 0,0 UV-I 75 W/m² 17,1 °C 18,1 °C 4,8 km/h (1 Bft) 99,18 %
31.08.2026 10:45 18,2 °C 94 % 1007,9 hPa 0,0 mm 0,3 km/h (0 Bft) S 190 ° 0 min 0,000 mm 0,0 UV-I 72 W/m² 17,2 °C 18,2 °C 6,4 km/h (2 Bft) 99,11 %
31.08.2026 10:40 18,0 °C 94 % 1007,9 hPa 0,0 mm 0,1 km/h (0 Bft) SW 217 ° 0 min 0,000 mm 0,0 UV-I 70 W/m² 17,0 °C 18,0 °C 1,6 km/h (1 Bft) 99,19 %
31.08.2026 10:35 17,9 °C 94 % 1007,9 hPa 0,0 mm 0,9 km/h (0 Bft) S-SW 203 ° 0 min 0,000 mm 0,0 UV-I 68 W/m² 16,9 °C 17,9 °C 6,4 km/h (2 Bft) 96,43 %
31.08.2026 10:30 17,6 °C 94 % 1007,9 hPa 0,0 mm 3,6 km/h (1 Bft) S 175 ° 0 min 0,000 mm 0,0 UV-I 65 W/m² 16,6 °C 17,6 °C 16,1 km/h (3 Bft) 97,60 %
31.08.2026 10:25 17,6 °C 94 % 1007,8 hPa 0,0 mm 0,5 km/h (0 Bft) S 169 ° 0 min 0,000 mm 0,0 UV-I 63 W/m² 16,6 °C 17,6 °C 6,4 km/h (2 Bft) 98,25 %
31.08.2026 10:20 17,3 °C 94 % 1007,8 hPa 0,0 mm 0,7 km/h (0 Bft) SW 222 ° 0 min 0,000 mm 0,0 UV-I 62 W/m² 16,3 °C 17,3 °C 6,4 km/h (2 Bft) 100,00 %
31.08.2026 10:15 16,9 °C 94 % 1007,9 hPa 0,0 mm 1,2 km/h (1 Bft) S-SO 165 ° 0 min 0,000 mm 0,0 UV-I 62 W/m² 15,9 °C 16,9 °C 14,5 km/h (3 Bft) 100,00 %
31.08.2026 10:10 16,7 °C 94 % 1007,9 hPa 0,0 mm 0,6 km/h (0 Bft) S 184 ° 0 min 0,000 mm 0,0 UV-I 62 W/m² 15,7 °C 16,7 °C 4,8 km/h (1 Bft) 98,25 %
31.08.2026 10:05 16,3 °C 94 % 1007,8 hPa 0,0 mm 2,7 km/h (1 Bft) S 188 ° 0 min 0,000 mm 0,0 UV-I 64 W/m² 15,3 °C 16,3 °C 12,9 km/h (3 Bft) 99,13 %
31.08.2026 10:00 16,0 °C 94 % 1007,7 hPa 0,0 mm 0,2 km/h (0 Bft) S 186 ° 0 min 0,026 mm 0,0 UV-I 58 W/m² 15,0 °C 16,0 °C 1,6 km/h (1 Bft) 100,00 %
31.08.2026 09:55 15,8 °C 93 % 1007,9 hPa 0,0 mm 0,3 km/h (0 Bft) S 186 ° 0 min 0,000 mm 0,0 UV-I 27 W/m² 14,7 °C 15,8 °C 3,2 km/h (1 Bft) 100,00 %
31.08.2026 09:50 15,6 °C 93 % 1007,9 hPa 0,2 mm 0,3 km/h (0 Bft) S 186 ° 0 min 0,000 mm 0,0 UV-I 13 W/m² 14,5 °C 15,6 °C 3,2 km/h (1 Bft) 100,00 %
31.08.2026 09:45 15,6 °C 93 % 1008,1 hPa 0,2 mm 2,8 km/h (1 Bft) S 186 ° 0 min 0,000 mm 0,0 UV-I 7 W/m² 14,5 °C 15,6 °C 12,9 km/h (3 Bft) 100,00 %
31.08.2026 09:40 16,3 °C 92 % 1008,4 hPa 3,6 mm 5,6 km/h (1 Bft) S 178 ° 0 min 0,000 mm 0,0 UV-I 5 W/m² 15,0 °C 16,3 °C 16,1 km/h (3 Bft) 96,49 %
31.08.2026 09:35 16,9 °C 93 % 1008,5 hPa 0,2 mm 0,0 km/h (0 Bft) SW 232 ° 0 min 0,000 mm 0,0 UV-I 14 W/m² 15,8 °C 16,9 °C 0,0 km/h (0 Bft) 97,58 %
31.08.2026 09:30 17,1 °C 94 % 1008,0 hPa 0,0 mm 0,0 km/h (0 Bft) S-SW 195 ° 0 min 0,000 mm 0,0 UV-I 41 W/m² 16,1 °C 17,1 °C 0,0 km/h (0 Bft) 96,46 %
31.08.2026 09:25 16,9 °C 94 % 1007,7 hPa 0,0 mm 0,0 km/h (0 Bft) S-SW 200 ° 0 min 0,000 mm 0,0 UV-I 52 W/m² 15,9 °C 16,9 °C 0,0 km/h (0 Bft) 97,35 %
31.08.2026 09:20 16,9 °C 94 % 1007,8 hPa 0,0 mm 0,0 km/h (0 Bft) SW 234 ° 0 min 0,000 mm 0,0 UV-I 40 W/m² 15,9 °C 16,9 °C 0,0 km/h (0 Bft) 96,72 %
31.08.2026 09:15 16,7 °C 93 % 1007,9 hPa 0,0 mm 0,0 km/h (0 Bft) S-SW 196 ° 0 min 0,000 mm 0,0 UV-I 33 W/m² 15,6 °C 16,7 °C 0,0 km/h (0 Bft) 98,21 %
31.08.2026 09:10 16,8 °C 94 % 1007,8 hPa 0,0 mm 0,0 km/h (0 Bft) S 169 ° 0 min 0,000 mm 0,0 UV-I 42 W/m² 15,8 °C 16,8 °C 0,0 km/h (0 Bft) 97,62 %
31.08.2026 09:05 16,7 °C 94 % 1007,8 hPa 0,0 mm 0,1 km/h (0 Bft) S-SW 193 ° 0 min 0,025 mm 0,0 UV-I 40 W/m² 15,7 °C 16,7 °C 1,6 km/h (1 Bft) 97,32 %
31.08.2026 09:00 16,6 °C 94 % 1007,9 hPa 0,0 mm 0,0 km/h (0 Bft) S 178 ° 0 min 0,000 mm 0,0 UV-I 32 W/m² 15,6 °C 16,6 °C 3,2 km/h (1 Bft) 100,00 %
31.08.2026 08:55 16,6 °C 94 % 1008,0 hPa 0,0 mm 0,0 km/h (0 Bft) S 190 ° 0 min 0,000 mm 0,0 UV-I 27 W/m² 15,6 °C 16,6 °C 0,0 km/h (0 Bft) 98,43 %
31.08.2026 08:50 16,6 °C 94 % 1008,0 hPa 0,0 mm 0,0 km/h (0 Bft) S 186 ° 0 min 0,000 mm 0,0 UV-I 24 W/m² 15,6 °C 16,6 °C 0,0 km/h (0 Bft) 100,00 %
31.08.2026 08:45 16,6 °C 94 % 1007,9 hPa 0,0 mm 0,0 km/h (0 Bft) S 186 ° 0 min 0,000 mm 0,0 UV-I 22 W/m² 15,6 °C 16,6 °C 0,0 km/h (0 Bft) 95,58 %
31.08.2026 08:35 16,5 °C 94 % 1007,8 hPa 0,0 mm 0,0 km/h (0 Bft) S-SW 203 ° 0 min 0,000 mm 0,0 UV-I 26 W/m² 15,5 °C 16,5 °C 0,0 km/h (0 Bft) 95,97 %
31.08.2026 08:30 16,4 °C 94 % 1007,9 hPa 0,0 mm 0,0 km/h (0 Bft) SO 144 ° 0 min 0,000 mm 0,0 UV-I 27 W/m² 15,4 °C 16,4 °C 0,0 km/h (0 Bft) 97,39 %
31.08.2026 08:25 16,3 °C 94 % 1007,9 hPa 0,0 mm 0,0 km/h (0 Bft) S-SO 163 ° 0 min 0,000 mm 0,0 UV-I 18 W/m² 15,3 °C 16,3 °C 0,0 km/h (0 Bft) 96,43 %
31.08.2026 08:20 16,3 °C 94 % 1007,9 hPa 0,0 mm 0,0 km/h (0 Bft) S 171 ° 0 min 0,000 mm 0,0 UV-I 16 W/m² 15,3 °C 16,3 °C 0,0 km/h (0 Bft) 99,18 %
31.08.2026 08:15 16,3 °C 94 % 1007,9 hPa 0,0 mm 0,0 km/h (0 Bft) S 175 ° 0 min 0,000 mm 0,0 UV-I 16 W/m² 15,3 °C 16,3 °C 0,0 km/h (0 Bft) 99,12 %
31.08.2026 08:10 16,1 °C 94 % 1007,8 hPa 0,0 mm 0,0 km/h (0 Bft) S-SO 147 ° 0 min 0,000 mm 0,0 UV-I 16 W/m² 15,1 °C 16,1 °C 0,0 km/h (0 Bft) 98,41 %
31.08.2026 08:05 16,1 °C 94 % 1007,9 hPa 0,0 mm 0,0 km/h (0 Bft) S-SO 147 ° 0 min 0,000 mm 0,0 UV-I 14 W/m² 15,1 °C 16,1 °C 0,0 km/h (0 Bft) 99,11 %
31.08.2026 08:00 15,9 °C 94 % 1007,9 hPa 0,0 mm 0,0 km/h (0 Bft) S-SO 147 ° 0 min 0,000 mm 0,0 UV-I 15 W/m² 14,9 °C 15,9 °C 0,0 km/h (0 Bft) 98,23 %
31.08.2026 07:55 15,9 °C 94 % 1007,9 hPa 0,0 mm 0,0 km/h (0 Bft) S 184 ° 0 min 0,000 mm 0,0 UV-I 12 W/m² 14,9 °C 15,9 °C 0,0 km/h (0 Bft) 99,19 %
31.08.2026 07:50 15,8 °C 94 % 1007,8 hPa 0,0 mm 0,0 km/h (0 Bft) S 184 ° 0 min 0,000 mm 0,0 UV-I 8 W/m² 14,8 °C 15,8 °C 0,0 km/h (0 Bft) 99,12 %
31.08.2026 07:45 15,8 °C 94 % 1007,8 hPa 0,0 mm 0,0 km/h (0 Bft) S 184 ° 0 min 0,000 mm 0,0 UV-I 11 W/m² 14,8 °C 15,8 °C 0,0 km/h (0 Bft) 94,78 %
31.08.2026 07:40 15,8 °C 94 % 1007,8 hPa 0,0 mm 0,0 km/h (0 Bft) S 184 ° 0 min 0,000 mm 0,0 UV-I 12 W/m² 14,8 °C 15,8 °C 0,0 km/h (0 Bft) 96,77 %
31.08.2026 07:35 15,7 °C 94 % 1007,9 hPa 0,0 mm 0,0 km/h (0 Bft) S 184 ° 0 min 0,000 mm 0,0 UV-I 9 W/m² 14,7 °C 15,7 °C 0,0 km/h (0 Bft) 98,21 %
31.08.2026 07:30 15,7 °C 94 % 1008,1 hPa 0,0 mm 0,0 km/h (0 Bft) S 184 ° 0 min 0,000 mm 0,0 UV-I 5 W/m² 14,7 °C 15,7 °C 0,0 km/h (0 Bft) 98,32 %
31.08.2026 07:25 15,7 °C 94 % 1008,1 hPa 0,0 mm 0,0 km/h (0 Bft) S 184 ° 0 min 0,000 mm 0,0 UV-I 5 W/m² 14,7 °C 15,7 °C 0,0 km/h (0 Bft) 98,29 %
31.08.2026 07:20 15,7 °C 94 % 1008,2 hPa 0,0 mm 0,0 km/h (0 Bft) S 184 ° 0 min 0,000 mm 0,0 UV-I 5 W/m² 14,7 °C 15,7 °C 0,0 km/h (0 Bft) 98,23 %
31.08.2026 07:15 15,6 °C 94 % 1008,1 hPa 0,0 mm 0,0 km/h (0 Bft) S 184 ° 0 min 0,000 mm 0,0 UV-I 6 W/m² 14,6 °C 15,6 °C 0,0 km/h (0 Bft) 99,14 %
31.08.2026 07:10 15,6 °C 94 % 1008,2 hPa 0,0 mm 0,0 km/h (0 Bft) S 184 ° 0 min 0,000 mm 0,0 UV-I 5 W/m² 14,6 °C 15,6 °C 0,0 km/h (0 Bft) 100,00 %
31.08.2026 07:05 15,5 °C 94 % 1008,2 hPa 0,0 mm 0,0 km/h (0 Bft) S 184 ° 0 min 0,000 mm 0,0 UV-I 0 W/m² 14,5 °C 15,5 °C 0,0 km/h (0 Bft) 98,23 %
31.08.2026 07:00 15,4 °C 94 % 1008,2 hPa 0,2 mm 0,0 km/h (0 Bft) S 184 ° 0 min 0,000 mm 0,0 UV-I 0 W/m² 14,4 °C 15,4 °C 0,0 km/h (0 Bft) 100,00 %
31.08.2026 06:55 15,4 °C 94 % 1008,4 hPa 0,2 mm 0,0 km/h (0 Bft) S 184 ° 0 min 0,000 mm 0,0 UV-I 0 W/m² 14,4 °C 15,4 °C 0,0 km/h (0 Bft) 98,39 %
31.08.2026 06:50 15,3 °C 94 % 1008,4 hPa 0,0 mm 0,0 km/h (0 Bft) S 184 ° 0 min 0,000 mm 0,0 UV-I 0 W/m² 14,3 °C 15,3 °C 0,0 km/h (0 Bft) 99,14 %
31.08.2026 06:45 15,2 °C 94 % 1008,3 hPa 0,0 mm 0,0 km/h (0 Bft) S 184 ° 0 min 0,000 mm 0,0 UV-I 0 W/m² 14,2 °C 15,2 °C 0,0 km/h (0 Bft) 95,65 %
31.08.2026 06:40 15,1 °C 94 % 1008,3 hPa 0,0 mm 0,0 km/h (0 Bft) S 184 ° 0 min 0,000 mm 0,0 UV-I 0 W/m² 14,1 °C 15,1 °C 0,0 km/h (0 Bft) 95,54 %
31.08.2026 06:35 14,9 °C 94 % 1008,3 hPa 0,0 mm 0,0 km/h (0 Bft) S 184 ° 0 min 0,000 mm 0,0 UV-I 0 W/m² 13,9 °C 14,9 °C 0,0 km/h (0 Bft) 96,00 %
31.08.2026 06:30 14,9 °C 93 % 1008,2 hPa 0,0 mm 0,0 km/h (0 Bft) S 184 ° 0 min 0,000 mm 0,0 UV-I 0 W/m² 13,8 °C 14,9 °C 0,0 km/h (0 Bft) 99,11 %
31.08.2026 06:25 14,9 °C 93 % 1008,3 hPa 0,0 mm 0,0 km/h (0 Bft) S 184 ° 0 min 0,000 mm 0,0 UV-I 0 W/m² 13,8 °C 14,9 °C 0,0 km/h (0 Bft) 97,35 %
31.08.2026 06:20 14,9 °C 93 % 1008,3 hPa 0,0 mm 0,0 km/h (0 Bft) S 184 ° 0 min 0,000 mm 0,0 UV-I 0 W/m² 13,8 °C 14,9 °C 0,0 km/h (0 Bft) 99,19 %
31.08.2026 06:15 15,1 °C 93 % 1008,3 hPa 0,0 mm 0,0 km/h (0 Bft) S 184 ° 0 min 0,000 mm 0,0 UV-I 0 W/m² 14,0 °C 15,1 °C 0,0 km/h (0 Bft) 98,21 %
31.08.2026 06:10 15,1 °C 93 % 1008,2 hPa 0,0 mm 0,0 km/h (0 Bft) S 184 ° 0 min 0,000 mm 0,0 UV-I 0 W/m² 14,0 °C 15,1 °C 0,0 km/h (0 Bft) 96,03 %
31.08.2026 06:05 15,1 °C 93 % 1008,2 hPa 0,0 mm 0,0 km/h (0 Bft) S 184 ° 0 min 0,000 mm 0,0 UV-I 0 W/m² 14,0 °C 15,1 °C 0,0 km/h (0 Bft) 99,12 %
31.08.2026 06:00 15,2 °C 93 % 1008,3 hPa 0,0 mm 0,0 km/h (0 Bft) S 184 ° 0 min 0,000 mm 0,0 UV-I 0 W/m² 14,1 °C 15,2 °C 0,0 km/h (0 Bft) 100,00 %
31.08.2026 05:55 15,2 °C 93 % 1008,3 hPa 0,0 mm 0,0 km/h (0 Bft) S 184 ° 0 min 0,000 mm 0,0 UV-I 0 W/m² 14,1 °C 15,2 °C 0,0 km/h (0 Bft) 98,26 %
31.08.2026 05:50 15,3 °C 93 % 1008,6 hPa 0,0 mm 0,0 km/h (0 Bft) S 184 ° 0 min 0,000 mm 0,0 UV-I 0 W/m² 14,2 °C 15,3 °C 0,0 km/h (0 Bft) 95,93 %
31.08.2026 05:45 15,3 °C 93 % 1008,8 hPa 0,0 mm 0,0 km/h (0 Bft) S 184 ° 0 min 0,000 mm 0,0 UV-I 0 W/m² 14,2 °C 15,3 °C 0,0 km/h (0 Bft) 98,23 %
31.08.2026 05:40 15,3 °C 93 % 1008,7 hPa 0,0 mm 0,0 km/h (0 Bft) S 184 ° 0 min 0,000 mm 0,0 UV-I 0 W/m² 14,2 °C 15,3 °C 0,0 km/h (0 Bft) 97,58 %
31.08.2026 05:35 15,4 °C 93 % 1008,7 hPa 0,0 mm 0,0 km/h (0 Bft) S 184 ° 0 min 0,000 mm 0,0 UV-I 0 W/m² 14,3 °C 15,4 °C 0,0 km/h (0 Bft) 96,52 %
31.08.2026 05:30 15,6 °C 93 % 1008,6 hPa 0,0 mm 0,0 km/h (0 Bft) S 184 ° 0 min 0,000 mm 0,0 UV-I 0 W/m² 14,5 °C 15,6 °C 1,6 km/h (1 Bft) 100,00 %
31.08.2026 05:25 15,7 °C 93 % 1008,5 hPa 0,0 mm 0,0 km/h (0 Bft) S 184 ° 0 min 0,000 mm 0,0 UV-I 0 W/m² 14,6 °C 15,7 °C 0,0 km/h (0 Bft) 98,26 %
31.08.2026 05:20 15,8 °C 93 % 1008,6 hPa 0,0 mm 0,0 km/h (0 Bft) S 184 ° 0 min 0,000 mm 0,0 UV-I 0 W/m² 14,7 °C 15,8 °C 0,0 km/h (0 Bft) 100,00 %
31.08.2026 05:15 15,9 °C 93 % 1008,6 hPa 0,0 mm 0,0 km/h (0 Bft) S 184 ° 0 min 0,000 mm 0,0 UV-I 0 W/m² 14,8 °C 15,9 °C 1,6 km/h (1 Bft) 100,00 %
31.08.2026 05:10 15,9 °C 93 % 1008,8 hPa 0,0 mm 1,2 km/h (1 Bft) S 184 ° 0 min 0,000 mm 0,0 UV-I 0 W/m² 14,8 °C 15,9 °C 6,4 km/h (2 Bft) 98,21 %
31.08.2026 05:05 15,9 °C 93 % 1008,8 hPa 0,0 mm 3,4 km/h (1 Bft) S 184 ° 0 min 0,000 mm 0,0 UV-I 0 W/m² 14,8 °C 15,9 °C 8,0 km/h (2 Bft) 99,19 %
31.08.2026 05:00 16,0 °C 93 % 1008,8 hPa 0,0 mm 1,8 km/h (1 Bft) S 183 ° 0 min 0,000 mm 0,0 UV-I 0 W/m² 14,9 °C 16,0 °C 8,0 km/h (2 Bft) 98,21 %
31.08.2026 04:55 16,0 °C 93 % 1008,9 hPa 0,0 mm 3,1 km/h (1 Bft) S 180 ° 0 min 0,000 mm 0,0 UV-I 0 W/m² 14,9 °C 16,0 °C 8,0 km/h (2 Bft) 98,39 %
31.08.2026 04:50 16,1 °C 93 % 1008,9 hPa 0,0 mm 1,7 km/h (1 Bft) S 187 ° 0 min 0,000 mm 0,0 UV-I 0 W/m² 15,0 °C 16,1 °C 4,8 km/h (1 Bft) 95,58 %
31.08.2026 04:45 16,2 °C 93 % 1008,9 hPa 0,0 mm 1,3 km/h (1 Bft) S 187 ° 0 min 0,000 mm 0,0 UV-I 0 W/m² 15,1 °C 16,2 °C 4,8 km/h (1 Bft) 96,55 %
31.08.2026 04:40 16,3 °C 93 % 1009,1 hPa 0,0 mm 2,3 km/h (1 Bft) S 182 ° 0 min 0,000 mm 0,0 UV-I 0 W/m² 15,2 °C 16,3 °C 8,0 km/h (2 Bft) 97,56 %
31.08.2026 04:35 16,3 °C 93 % 1009,1 hPa 0,0 mm 3,1 km/h (1 Bft) S 180 ° 0 min 0,000 mm 0,0 UV-I 0 W/m² 15,2 °C 16,3 °C 8,0 km/h (2 Bft) 97,37 %
31.08.2026 04:30 16,3 °C 93 % 1009,1 hPa 0,0 mm 3,0 km/h (1 Bft) S 178 ° 0 min 0,000 mm 0,0 UV-I 0 W/m² 15,2 °C 16,3 °C 11,3 km/h (2 Bft) 100,00 %
31.08.2026 04:25 16,2 °C 93 % 1009,3 hPa 0,0 mm 2,7 km/h (1 Bft) S 185 ° 0 min 0,000 mm 0,0 UV-I 0 W/m² 15,1 °C 16,2 °C 8,0 km/h (2 Bft) 99,19 %
31.08.2026 04:20 16,1 °C 93 % 1009,3 hPa 0,0 mm 0,3 km/h (0 Bft) S 178 ° 0 min 0,000 mm 0,0 UV-I 0 W/m² 15,0 °C 16,1 °C 3,2 km/h (1 Bft) 99,13 %
31.08.2026 04:10 16,2 °C 93 % 1009,1 hPa 0,0 mm 0,1 km/h (0 Bft) S 184 ° 0 min 0,000 mm 0,0 UV-I 0 W/m² 15,1 °C 16,2 °C 1,6 km/h (1 Bft) 98,23 %
31.08.2026 04:05 16,2 °C 93 % 1009,3 hPa 0,0 mm 0,1 km/h (0 Bft) S 184 ° 0 min 0,000 mm 0,0 UV-I 0 W/m² 15,1 °C 16,2 °C 3,2 km/h (1 Bft) 98,10 %
31.08.2026 04:00 16,3 °C 93 % 1009,3 hPa 0,0 mm 0,0 km/h (0 Bft) S 187 ° 0 min 0,000 mm 0,0 UV-I 0 W/m² 15,2 °C 16,3 °C 1,6 km/h (1 Bft) 99,12 %
31.08.2026 03:55 16,3 °C 93 % 1009,2 hPa 0,0 mm 0,2 km/h (0 Bft) S 187 ° 0 min 0,000 mm 0,0 UV-I 0 W/m² 15,2 °C 16,3 °C 1,6 km/h (1 Bft) 98,39 %
31.08.2026 03:50 16,3 °C 93 % 1009,2 hPa 0,0 mm 0,6 km/h (0 Bft) S 187 ° 0 min 0,000 mm 0,0 UV-I 0 W/m² 15,2 °C 16,3 °C 4,8 km/h (1 Bft) 93,75 %
31.08.2026 03:45 16,3 °C 93 % 1009,3 hPa 0,0 mm 0,8 km/h (0 Bft) S 188 ° 0 min 0,000 mm 0,0 UV-I 0 W/m² 15,2 °C 16,3 °C 3,2 km/h (1 Bft) 97,39 %
31.08.2026 03:40 16,3 °C 93 % 1009,4 hPa 0,0 mm 0,0 km/h (0 Bft) S 188 ° 0 min 0,000 mm 0,0 UV-I 0 W/m² 15,2 °C 16,3 °C 1,6 km/h (1 Bft) 95,97 %
31.08.2026 03:35 16,2 °C 93 % 1009,3 hPa 0,0 mm 0,6 km/h (0 Bft) S 188 ° 0 min 0,000 mm 0,0 UV-I 0 W/m² 15,1 °C 16,2 °C 3,2 km/h (1 Bft) 100,00 %
31.08.2026 03:30 16,1 °C 93 % 1009,4 hPa 0,0 mm 0,1 km/h (0 Bft) S 189 ° 0 min 0,000 mm 0,0 UV-I 0 W/m² 15,0 °C 16,1 °C 1,6 km/h (1 Bft) 98,25 %
31.08.2026 03:25 16,1 °C 93 % 1009,4 hPa 0,0 mm 0,3 km/h (0 Bft) S 189 ° 0 min 0,000 mm 0,0 UV-I 0 W/m² 15,0 °C 16,1 °C 4,8 km/h (1 Bft) 98,23 %
31.08.2026 03:20 16,1 °C 93 % 1009,4 hPa 0,0 mm 0,4 km/h (0 Bft) S 189 ° 0 min 0,000 mm 0,0 UV-I 0 W/m² 15,0 °C 16,1 °C 4,8 km/h (1 Bft) 97,35 %
31.08.2026 03:15 16,2 °C 93 % 1009,4 hPa 0,0 mm 0,0 km/h (0 Bft) S 189 ° 0 min 0,000 mm 0,0 UV-I 0 W/m² 15,1 °C 16,2 °C 0,0 km/h (0 Bft) 99,22 %
31.08.2026 03:10 16,3 °C 93 % 1009,4 hPa 0,0 mm 0,0 km/h (0 Bft) S 189 ° 0 min 0,000 mm 0,0 UV-I 0 W/m² 15,2 °C 16,3 °C 0,0 km/h (0 Bft) 98,25 %
31.08.2026 03:05 16,4 °C 93 % 1009,4 hPa 0,0 mm 0,0 km/h (0 Bft) S 189 ° 0 min 0,000 mm 0,0 UV-I 0 W/m² 15,3 °C 16,4 °C 0,0 km/h (0 Bft) 100,00 %
31.08.2026 03:00 16,5 °C 93 % 1009,5 hPa 0,0 mm 0,0 km/h (0 Bft) S 189 ° 0 min 0,000 mm 0,0 UV-I 0 W/m² 15,4 °C 16,5 °C 0,0 km/h (0 Bft) 98,39 %
31.08.2026 02:55 16,7 °C 93 % 1009,6 hPa 0,0 mm 0,0 km/h (0 Bft) S 189 ° 0 min 0,000 mm 0,0 UV-I 0 W/m² 15,6 °C 16,7 °C 0,0 km/h (0 Bft) 96,69 %
31.08.2026 02:50 16,8 °C 93 % 1009,7 hPa 0,0 mm 0,0 km/h (0 Bft) S 189 ° 0 min 0,000 mm 0,0 UV-I 0 W/m² 15,7 °C 16,8 °C 1,6 km/h (1 Bft) 96,43 %
31.08.2026 02:45 16,9 °C 93 % 1009,8 hPa 0,0 mm 0,6 km/h (0 Bft) S 189 ° 0 min 0,000 mm 0,0 UV-I 0 W/m² 15,8 °C 16,9 °C 3,2 km/h (1 Bft) 97,41 %
31.08.2026 02:40 16,9 °C 93 % 1009,9 hPa 0,0 mm 0,7 km/h (0 Bft) S 189 ° 0 min 0,000 mm 0,0 UV-I 0 W/m² 15,8 °C 16,9 °C 6,4 km/h (2 Bft) 99,12 %
31.08.2026 02:35 16,9 °C 93 % 1010,0 hPa 0,0 mm 0,5 km/h (0 Bft) S 173 ° 0 min 0,000 mm 0,0 UV-I 0 W/m² 15,8 °C 16,9 °C 4,8 km/h (1 Bft) 97,41 %
31.08.2026 02:30 17,0 °C 93 % 1010,0 hPa 0,0 mm 1,5 km/h (1 Bft) S 181 ° 0 min 0,000 mm 0,0 UV-I 0 W/m² 15,9 °C 17,0 °C 6,4 km/h (2 Bft) 99,19 %
31.08.2026 02:25 17,0 °C 93 % 1010,0 hPa 0,0 mm 2,6 km/h (1 Bft) S 172 ° 0 min 0,000 mm 0,0 UV-I 0 W/m² 15,9 °C 17,0 °C 9,7 km/h (2 Bft) 100,00 %
31.08.2026 02:20 17,0 °C 93 % 1010,1 hPa 0,0 mm 1,9 km/h (1 Bft) S 182 ° 0 min 0,000 mm 0,0 UV-I 0 W/m² 15,9 °C 17,0 °C 6,4 km/h (2 Bft) 98,40 %
31.08.2026 02:15 17,0 °C 93 % 1010,2 hPa 0,0 mm 1,9 km/h (1 Bft) S 174 ° 0 min 0,000 mm 0,0 UV-I 0 W/m² 15,9 °C 17,0 °C 6,4 km/h (2 Bft) 99,10 %
31.08.2026 02:10 17,0 °C 93 % 1010,1 hPa 0,0 mm 1,5 km/h (1 Bft) S 190 ° 0 min 0,000 mm 0,0 UV-I 0 W/m² 15,9 °C 17,0 °C 6,4 km/h (2 Bft) 99,14 %
31.08.2026 02:05 17,1 °C 93 % 1010,2 hPa 0,0 mm 0,2 km/h (0 Bft) S-SW 205 ° 0 min 0,000 mm 0,0 UV-I 0 W/m² 16,0 °C 17,1 °C 3,2 km/h (1 Bft) 98,39 %
31.08.2026 02:00 17,1 °C 93 % 1010,1 hPa 0,0 mm 0,3 km/h (0 Bft) S-SW 202 ° 0 min 0,000 mm 0,0 UV-I 0 W/m² 16,0 °C 17,1 °C 3,2 km/h (1 Bft) 98,23 %
31.08.2026 01:55 17,1 °C 93 % 1010,2 hPa 0,0 mm 2,3 km/h (1 Bft) S-SW 203 ° 0 min 0,000 mm 0,0 UV-I 0 W/m² 16,0 °C 17,1 °C 6,4 km/h (2 Bft) 96,43 %
31.08.2026 01:50 17,1 °C 93 % 1010,2 hPa 0,0 mm 0,5 km/h (0 Bft) S-SW 205 ° 0 min 0,000 mm 0,0 UV-I 0 W/m² 16,0 °C 17,1 °C 6,4 km/h (2 Bft) 97,60 %
31.08.2026 01:45 17,1 °C 93 % 1010,1 hPa 0,0 mm 0,0 km/h (0 Bft) S-SW 205 ° 0 min 0,000 mm 0,0 UV-I 0 W/m² 16,0 °C 17,1 °C 0,0 km/h (0 Bft) 96,46 %
31.08.2026 01:40 17,0 °C 93 % 1010,2 hPa 0,0 mm 0,0 km/h (0 Bft) S-SW 205 ° 0 min 0,000 mm 0,0 UV-I 0 W/m² 15,9 °C 17,0 °C 1,6 km/h (1 Bft) 99,12 %
31.08.2026 01:35 17,0 °C 93 % 1010,3 hPa 0,0 mm 0,5 km/h (0 Bft) S-SW 205 ° 0 min 0,000 mm 0,0 UV-I 0 W/m² 15,9 °C 17,0 °C 4,8 km/h (1 Bft) 95,97 %
31.08.2026 01:30 16,9 °C 93 % 1010,1 hPa 0,0 mm 0,8 km/h (0 Bft) S-SW 205 ° 0 min 0,000 mm 0,0 UV-I 0 W/m² 15,8 °C 16,9 °C 4,8 km/h (1 Bft) 100,00 %
31.08.2026 01:25 17,0 °C 93 % 1010,1 hPa 0,0 mm 0,7 km/h (0 Bft) S-SW 205 ° 0 min 0,000 mm 0,0 UV-I 0 W/m² 15,9 °C 17,0 °C 3,2 km/h (1 Bft) 98,21 %
31.08.2026 01:20 16,9 °C 93 % 1010,2 hPa 0,0 mm 2,0 km/h (1 Bft) S-SW 205 ° 0 min 0,000 mm 0,0 UV-I 0 W/m² 15,8 °C 16,9 °C 4,8 km/h (1 Bft) 98,37 %
31.08.2026 01:15 16,9 °C 93 % 1010,3 hPa 0,0 mm 0,2 km/h (0 Bft) S-SW 205 ° 0 min 0,000 mm 0,0 UV-I 0 W/m² 15,8 °C 16,9 °C 4,8 km/h (1 Bft) 100,00 %
31.08.2026 01:10 16,9 °C 93 % 1010,3 hPa 0,0 mm 0,3 km/h (0 Bft) S-SW 205 ° 0 min 0,000 mm 0,0 UV-I 0 W/m² 15,8 °C 16,9 °C 4,8 km/h (1 Bft) 100,00 %
31.08.2026 01:05 16,8 °C 93 % 1010,4 hPa 0,0 mm 0,2 km/h (0 Bft) S-SW 205 ° 0 min 0,000 mm 0,0 UV-I 0 W/m² 15,7 °C 16,8 °C 3,2 km/h (1 Bft) 100,00 %
31.08.2026 01:00 16,8 °C 93 % 1010,4 hPa 0,0 mm 0,3 km/h (0 Bft) S-SW 205 ° 0 min 0,000 mm 0,0 UV-I 0 W/m² 15,7 °C 16,8 °C 3,2 km/h (1 Bft) 99,11 %
31.08.2026 00:55 16,9 °C 93 % 1010,4 hPa 0,0 mm 0,0 km/h (0 Bft) S-SW 205 ° 0 min 0,000 mm 0,0 UV-I 0 W/m² 15,8 °C 16,9 °C 0,0 km/h (0 Bft) 97,58 %
31.08.2026 00:50 16,9 °C 93 % 1010,3 hPa 0,0 mm 0,0 km/h (0 Bft) S-SW 205 ° 0 min 0,000 mm 0,0 UV-I 0 W/m² 15,8 °C 16,9 °C 1,6 km/h (1 Bft) 96,46 %
31.08.2026 00:45 16,9 °C 93 % 1010,3 hPa 0,0 mm 0,2 km/h (0 Bft) S-SW 205 ° 0 min 0,000 mm 0,0 UV-I 0 W/m² 15,8 °C 16,9 °C 3,2 km/h (1 Bft) 96,77 %
31.08.2026 00:40 16,9 °C 93 % 1010,5 hPa 0,0 mm 0,3 km/h (0 Bft) S-SW 205 ° 0 min 0,000 mm 0,0 UV-I 0 W/m² 15,8 °C 16,9 °C 3,2 km/h (1 Bft) 98,23 %
31.08.2026 00:35 16,9 °C 93 % 1010,5 hPa 0,0 mm 0,6 km/h (0 Bft) S-SW 205 ° 0 min 0,000 mm 0,0 UV-I 0 W/m² 15,8 °C 16,9 °C 3,2 km/h (1 Bft) 99,11 %
31.08.2026 00:30 16,8 °C 93 % 1010,5 hPa 0,0 mm 0,4 km/h (0 Bft) S-SW 205 ° 0 min 0,000 mm 0,0 UV-I 0 W/m² 15,7 °C 16,8 °C 3,2 km/h (1 Bft) 99,19 %
31.08.2026 00:25 16,8 °C 93 % 1010,5 hPa 0,0 mm 0,1 km/h (0 Bft) S-SW 205 ° 0 min 0,000 mm 0,0 UV-I 0 W/m² 15,7 °C 16,8 °C 1,6 km/h (1 Bft) 99,10 %
31.08.2026 00:20 16,8 °C 93 % 1010,5 hPa 0,0 mm 0,0 km/h (0 Bft) S-SW 205 ° 0 min 0,000 mm 0,0 UV-I 0 W/m² 15,7 °C 16,8 °C 0,0 km/h (0 Bft) 98,40 %
31.08.2026 00:15 16,8 °C 93 % 1010,4 hPa 0,0 mm 0,0 km/h (0 Bft) S-SW 205 ° 0 min 0,000 mm 0,0 UV-I 0 W/m² 15,7 °C 16,8 °C 0,0 km/h (0 Bft) 98,20 %
31.08.2026 00:10 16,8 °C 93 % 1010,5 hPa 0,0 mm 0,0 km/h (0 Bft) S-SW 205 ° 0 min 0,000 mm 0,0 UV-I 0 W/m² 15,7 °C 16,8 °C 0,0 km/h (0 Bft) 97,44 %
31.08.2026 00:05 16,8 °C 93 % 1010,4 hPa 0,0 mm 0,0 km/h (0 Bft) S-SW 205 ° 0 min 0,000 mm 0,0 UV-I 0 W/m² 15,7 °C 16,8 °C 0,0 km/h (0 Bft) 98,25 %
31.08.2026 00:00 16,8 °C 93 % 1010,5 hPa 0,0 mm 0,0 km/h (0 Bft) S-SW 205 ° 0 min 0,000 mm 0,0 UV-I 0 W/m² 15,7 °C 16,8 °C 1,6 km/h (1 Bft) 96,43 %
30.08.2026 23:55 17,0 °C 93 % 1010,6 hPa 0,0 mm 0,0 km/h (0 Bft) S-SW 205 ° 0 min 0,000 mm 0,0 UV-I 0 W/m² 15,9 °C 17,0 °C 0,0 km/h (0 Bft) 96,43 %
30.08.2026 23:50 17,1 °C 93 % 1010,7 hPa 0,0 mm 0,0 km/h (0 Bft) S-SW 205 ° 0 min 0,000 mm 0,0 UV-I 0 W/m² 16,0 °C 17,1 °C 0,0 km/h (0 Bft) 97,60 %
30.08.2026 23:45 17,1 °C 93 % 1010,5 hPa 0,0 mm 0,0 km/h (0 Bft) S-SW 205 ° 0 min 0,000 mm 0,0 UV-I 0 W/m² 16,0 °C 17,1 °C 0,0 km/h (0 Bft) 98,23 %
30.08.2026 23:40 17,1 °C 93 % 1010,7 hPa 0,0 mm 0,0 km/h (0 Bft) S-SW 206 ° 0 min 0,000 mm 0,0 UV-I 0 W/m² 16,0 °C 17,1 °C 0,0 km/h (0 Bft) 98,21 %
30.08.2026 23:35 17,1 °C 93 % 1010,7 hPa 0,0 mm 0,0 km/h (0 Bft) SW 222 ° 0 min 0,000 mm 0,0 UV-I 0 W/m² 16,0 °C 17,1 °C 1,6 km/h (1 Bft) 99,19 %
30.08.2026 23:30 17,1 °C 93 % 1010,6 hPa 0,0 mm 0,0 km/h (0 Bft) S-SW 205 ° 0 min 0,000 mm 0,0 UV-I 0 W/m² 16,0 °C 17,1 °C 1,6 km/h (1 Bft) 100,00 %
30.08.2026 23:25 17,1 °C 93 % 1010,5 hPa 0,0 mm 0,0 km/h (0 Bft) S-SW 205 ° 0 min 0,000 mm 0,0 UV-I 0 W/m² 16,0 °C 17,1 °C 0,0 km/h (0 Bft) 99,13 %
30.08.2026 23:20 17,0 °C 93 % 1010,5 hPa 0,0 mm 0,0 km/h (0 Bft) S-SW 205 ° 0 min 0,000 mm 0,0 UV-I 0 W/m² 15,9 °C 17,0 °C 0,0 km/h (0 Bft) 100,00 %
30.08.2026 23:15 17,0 °C 93 % 1010,5 hPa 0,0 mm 0,0 km/h (0 Bft) S-SW 212 ° 0 min 0,000 mm 0,0 UV-I 0 W/m² 15,9 °C 17,0 °C 1,6 km/h (1 Bft) 100,00 %
30.08.2026 23:10 16,9 °C 93 % 1010,5 hPa 0,0 mm 0,3 km/h (0 Bft) S 191 ° 0 min 0,000 mm 0,0 UV-I 0 W/m² 15,8 °C 16,9 °C 3,2 km/h (1 Bft) 97,50 %
30.08.2026 23:05 16,9 °C 93 % 1010,4 hPa 0,0 mm 0,1 km/h (0 Bft) SW 221 ° 0 min 0,000 mm 0,0 UV-I 0 W/m² 15,8 °C 16,9 °C 1,6 km/h (1 Bft) 100,00 %
30.08.2026 23:00 16,8 °C 93 % 1010,5 hPa 0,0 mm 0,8 km/h (0 Bft) SW 221 ° 0 min 0,000 mm 0,0 UV-I 0 W/m² 15,7 °C 16,8 °C 4,8 km/h (1 Bft) 97,60 %
30.08.2026 22:55 16,8 °C 93 % 1010,7 hPa 0,0 mm 1,6 km/h (1 Bft) SW 221 ° 0 min 0,000 mm 0,0 UV-I 0 W/m² 15,7 °C 16,8 °C 4,8 km/h (1 Bft) 96,43 %
30.08.2026 22:50 16,7 °C 93 % 1010,6 hPa 0,0 mm 0,7 km/h (0 Bft) W-SW 244 ° 0 min 0,000 mm 0,0 UV-I 0 W/m² 15,6 °C 16,7 °C 4,8 km/h (1 Bft) 95,97 %
30.08.2026 22:45 16,6 °C 93 % 1010,6 hPa 0,0 mm 0,2 km/h (0 Bft) W-SW 244 ° 0 min 0,000 mm 0,0 UV-I 0 W/m² 15,5 °C 16,6 °C 1,6 km/h (1 Bft) 97,32 %
30.08.2026 22:40 16,4 °C 93 % 1010,6 hPa 0,0 mm 0,6 km/h (0 Bft) W-SW 244 ° 0 min 0,000 mm 0,0 UV-I 0 W/m² 15,3 °C 16,4 °C 4,8 km/h (1 Bft) 99,19 %
30.08.2026 22:35 16,3 °C 92 % 1010,5 hPa 0,0 mm 0,3 km/h (0 Bft) W-SW 244 ° 0 min 0,000 mm 0,0 UV-I 0 W/m² 15,0 °C 16,3 °C 3,2 km/h (1 Bft) 99,12 %
30.08.2026 22:30 16,3 °C 92 % 1010,6 hPa 0,0 mm 0,0 km/h (0 Bft) W-SW 244 ° 0 min 0,000 mm 0,0 UV-I 0 W/m² 15,0 °C 16,3 °C 0,0 km/h (0 Bft) 97,35 %
30.08.2026 22:25 16,4 °C 92 % 1010,6 hPa 0,0 mm 0,1 km/h (0 Bft) W-SW 244 ° 0 min 0,000 mm 0,0 UV-I 0 W/m² 15,1 °C 16,4 °C 1,6 km/h (1 Bft) 97,58 %
30.08.2026 22:20 16,4 °C 92 % 1010,6 hPa 0,0 mm 0,7 km/h (0 Bft) W-SW 244 ° 0 min 0,000 mm 0,0 UV-I 0 W/m² 15,1 °C 16,4 °C 4,8 km/h (1 Bft) 99,12 %
30.08.2026 22:15 16,6 °C 92 % 1010,6 hPa 0,0 mm 0,9 km/h (0 Bft) W-SW 244 ° 0 min 0,000 mm 0,0 UV-I 0 W/m² 15,3 °C 16,6 °C 4,8 km/h (1 Bft) 98,25 %
30.08.2026 22:10 16,6 °C 92 % 1010,6 hPa 0,0 mm 0,5 km/h (0 Bft) W-SW 244 ° 0 min 0,000 mm 0,0 UV-I 0 W/m² 15,3 °C 16,6 °C 3,2 km/h (1 Bft) 99,19 %
30.08.2026 22:05 16,6 °C 92 % 1010,6 hPa 0,0 mm 0,0 km/h (0 Bft) W-SW 244 ° 0 min 0,000 mm 0,0 UV-I 0 W/m² 15,3 °C 16,6 °C 1,6 km/h (1 Bft) 99,12 %
30.08.2026 22:00 16,4 °C 92 % 1010,6 hPa 0,0 mm 0,0 km/h (0 Bft) W-SW 249 ° 0 min 0,000 mm 0,0 UV-I 0 W/m² 15,1 °C 16,4 °C 0,0 km/h (0 Bft) 95,93 %
30.08.2026 21:55 16,4 °C 92 % 1010,5 hPa 0,0 mm 0,1 km/h (0 Bft) W-SW 249 ° 0 min 0,000 mm 0,0 UV-I 0 W/m² 15,1 °C 16,4 °C 3,2 km/h (1 Bft) 95,54 %
30.08.2026 21:50 16,5 °C 92 % 1010,5 hPa 0,0 mm 0,1 km/h (0 Bft) W-SW 249 ° 0 min 0,000 mm 0,0 UV-I 0 W/m² 15,2 °C 16,5 °C 1,6 km/h (1 Bft) 96,43 %
30.08.2026 21:45 16,6 °C 92 % 1010,6 hPa 0,0 mm 0,2 km/h (0 Bft) W-SW 249 ° 0 min 0,000 mm 0,0 UV-I 0 W/m² 15,3 °C 16,6 °C 3,2 km/h (1 Bft) 97,58 %
30.08.2026 21:40 16,7 °C 92 % 1010,4 hPa 0,0 mm 0,2 km/h (0 Bft) SW 234 ° 0 min 0,000 mm 0,0 UV-I 0 W/m² 15,4 °C 16,7 °C 3,2 km/h (1 Bft) 97,35 %
30.08.2026 21:35 16,7 °C 92 % 1010,4 hPa 0,0 mm 0,3 km/h (0 Bft) SW 234 ° 0 min 0,000 mm 0,0 UV-I 0 W/m² 15,4 °C 16,7 °C 6,4 km/h (2 Bft) 99,17 %
30.08.2026 21:30 16,8 °C 92 % 1010,5 hPa 0,0 mm 0,6 km/h (0 Bft) S-SW 209 ° 0 min 0,000 mm 0,0 UV-I 0 W/m² 15,5 °C 16,8 °C 3,2 km/h (1 Bft) 100,00 %
30.08.2026 21:25 16,9 °C 92 % 1010,4 hPa 0,0 mm 0,7 km/h (0 Bft) S-SW 209 ° 0 min 0,000 mm 0,0 UV-I 0 W/m² 15,6 °C 16,9 °C 3,2 km/h (1 Bft) 97,54 %
30.08.2026 21:20 16,9 °C 91 % 1010,4 hPa 0,0 mm 0,3 km/h (0 Bft) S-SW 209 ° 0 min 0,000 mm 0,0 UV-I 0 W/m² 15,4 °C 16,9 °C 3,2 km/h (1 Bft) 98,26 %
30.08.2026 21:15 16,9 °C 91 % 1010,4 hPa 0,0 mm 0,1 km/h (0 Bft) S-SW 209 ° 0 min 0,000 mm 0,0 UV-I 0 W/m² 15,4 °C 16,9 °C 1,6 km/h (1 Bft) 100,00 %
30.08.2026 21:10 17,0 °C 91 % 1010,5 hPa 0,0 mm 0,9 km/h (0 Bft) SW 230 ° 0 min 0,000 mm 0,0 UV-I 0 W/m² 15,5 °C 17,0 °C 4,8 km/h (1 Bft) 99,07 %
30.08.2026 21:05 17,1 °C 91 % 1010,4 hPa 0,0 mm 1,3 km/h (1 Bft) SW 230 ° 0 min 0,000 mm 0,0 UV-I 0 W/m² 15,6 °C 17,1 °C 4,8 km/h (1 Bft) 99,19 %
30.08.2026 21:00 17,2 °C 91 % 1010,4 hPa 0,0 mm 0,5 km/h (0 Bft) SW 222 ° 0 min 0,000 mm 0,0 UV-I 0 W/m² 15,7 °C 17,2 °C 3,2 km/h (1 Bft) 96,43 %
30.08.2026 20:55 17,2 °C 91 % 1010,4 hPa 0,0 mm 0,6 km/h (0 Bft) SW 222 ° 0 min 0,000 mm 0,0 UV-I 0 W/m² 15,7 °C 17,2 °C 4,8 km/h (1 Bft) 96,75 %
30.08.2026 20:50 17,3 °C 91 % 1010,3 hPa 0,0 mm 0,0 km/h (0 Bft) SW 222 ° 0 min 0,000 mm 0,0 UV-I 0 W/m² 15,8 °C 17,3 °C 0,0 km/h (0 Bft) 99,10 %
30.08.2026 20:45 17,4 °C 91 % 1010,3 hPa 0,0 mm 0,0 km/h (0 Bft) SW 222 ° 0 min 0,000 mm 0,0 UV-I 0 W/m² 15,9 °C 17,4 °C 0,0 km/h (0 Bft) 99,19 %
30.08.2026 20:40 17,4 °C 91 % 1010,3 hPa 0,0 mm 0,0 km/h (0 Bft) SW 222 ° 0 min 0,000 mm 0,0 UV-I 0 W/m² 15,9 °C 17,4 °C 0,0 km/h (0 Bft) 98,20 %
30.08.2026 20:35 17,6 °C 90 % 1010,2 hPa 0,0 mm 0,0 km/h (0 Bft) SW 234 ° 0 min 0,000 mm 0,0 UV-I 0 W/m² 15,9 °C 17,6 °C 0,0 km/h (0 Bft) 99,19 %
30.08.2026 20:30 17,7 °C 90 % 1010,2 hPa 0,0 mm 0,1 km/h (0 Bft) SW 225 ° 0 min 0,000 mm 0,0 UV-I 0 W/m² 16,0 °C 17,7 °C 3,2 km/h (1 Bft) 100,00 %
30.08.2026 20:25 17,9 °C 90 % 1010,1 hPa 0,0 mm 0,0 km/h (0 Bft) SW 225 ° 0 min 0,000 mm 0,0 UV-I 0 W/m² 16,2 °C 17,9 °C 0,0 km/h (0 Bft) 99,11 %
30.08.2026 20:20 18,1 °C 90 % 1010,1 hPa 0,0 mm 0,7 km/h (0 Bft) S-SW 211 ° 0 min 0,000 mm 0,0 UV-I 0 W/m² 16,4 °C 18,1 °C 6,4 km/h (2 Bft) 98,39 %
30.08.2026 20:15 18,2 °C 90 % 1010,0 hPa 0,0 mm 0,8 km/h (0 Bft) W 263 ° 0 min 0,000 mm 0,0 UV-I 0 W/m² 16,5 °C 18,2 °C 6,4 km/h (2 Bft) 100,00 %
30.08.2026 20:10 18,3 °C 89 % 1010,0 hPa 0,0 mm 1,8 km/h (1 Bft) SW 215 ° 0 min 0,000 mm 0,0 UV-I 0 W/m² 16,5 °C 18,3 °C 9,7 km/h (2 Bft) 98,43 %
30.08.2026 20:05 18,4 °C 89 % 1009,8 hPa 0,0 mm 3,7 km/h (1 Bft) S-SW 192 ° 0 min 0,000 mm 0,0 UV-I 0 W/m² 16,6 °C 18,4 °C 8,0 km/h (2 Bft) 99,14 %
30.08.2026 20:00 18,4 °C 89 % 1009,8 hPa 0,0 mm 1,8 km/h (1 Bft) S-SW 211 ° 0 min 0,025 mm 0,0 UV-I 0 W/m² 16,6 °C 18,4 °C 8,0 km/h (2 Bft) 97,32 %
30.08.2026 19:55 18,4 °C 89 % 1009,9 hPa 0,0 mm 1,8 km/h (1 Bft) SW 219 ° 0 min 0,000 mm 0,0 UV-I 1 W/m² 16,6 °C 18,4 °C 6,4 km/h (2 Bft) 96,46 %
30.08.2026 19:50 18,4 °C 89 % 1009,6 hPa 0,0 mm 2,1 km/h (1 Bft) SW 225 ° 0 min 0,000 mm 0,0 UV-I 6 W/m² 16,6 °C 18,4 °C 8,0 km/h (2 Bft) 95,24 %
30.08.2026 19:45 18,3 °C 89 % 1009,7 hPa 0,0 mm 1,6 km/h (1 Bft) W-SW 244 ° 0 min 0,000 mm 0,0 UV-I 6 W/m² 16,5 °C 18,3 °C 6,4 km/h (2 Bft) 98,20 %
30.08.2026 19:40 18,4 °C 88 % 1009,6 hPa 0,0 mm 2,6 km/h (1 Bft) S 188 ° 0 min 0,000 mm 0,0 UV-I 8 W/m² 16,4 °C 18,4 °C 11,3 km/h (2 Bft) 100,00 %
30.08.2026 19:35 18,4 °C 88 % 1009,5 hPa 0,0 mm 1,2 km/h (1 Bft) S 190 ° 0 min 0,000 mm 0,0 UV-I 14 W/m² 16,4 °C 18,4 °C 3,2 km/h (1 Bft) 99,12 %
30.08.2026 19:30 18,6 °C 88 % 1009,4 hPa 0,0 mm 1,5 km/h (1 Bft) S 190 ° 0 min 0,000 mm 0,0 UV-I 19 W/m² 16,6 °C 18,6 °C 6,4 km/h (2 Bft) 100,00 %
30.08.2026 19:25 18,6 °C 88 % 1009,4 hPa 0,0 mm 1,4 km/h (1 Bft) S-SW 200 ° 0 min 0,000 mm 0,0 UV-I 18 W/m² 16,6 °C 18,6 °C 8,0 km/h (2 Bft) 97,58 %
30.08.2026 19:20 18,8 °C 87 % 1009,3 hPa 0,0 mm 2,4 km/h (1 Bft) W 280 ° 0 min 0,000 mm 0,0 UV-I 21 W/m² 16,6 °C 18,8 °C 9,7 km/h (2 Bft) 99,11 %
30.08.2026 19:15 18,9 °C 87 % 1009,3 hPa 0,0 mm 2,9 km/h (1 Bft) W-SW 255 ° 0 min 0,000 mm 0,0 UV-I 19 W/m² 16,7 °C 18,9 °C 12,9 km/h (3 Bft) 100,00 %
30.08.2026 19:10 19,1 °C 87 % 1009,2 hPa 0,0 mm 2,2 km/h (1 Bft) SW 229 ° 0 min 0,000 mm 0,0 UV-I 25 W/m² 16,9 °C 19,1 °C 8,0 km/h (2 Bft) 96,58 %
30.08.2026 19:05 19,2 °C 87 % 1009,2 hPa 0,0 mm 1,1 km/h (1 Bft) SW 234 ° 0 min 0,000 mm 0,0 UV-I 24 W/m² 17,0 °C 19,2 °C 4,8 km/h (1 Bft) 96,40 %
30.08.2026 19:00 19,4 °C 86 % 1009,2 hPa 0,0 mm 1,8 km/h (1 Bft) SW 223 ° 0 min 0,025 mm 0,0 UV-I 30 W/m² 17,0 °C 19,4 °C 8,0 km/h (2 Bft) 95,61 %
30.08.2026 18:55 19,4 °C 87 % 1009,1 hPa 0,0 mm 3,8 km/h (1 Bft) S-SW 210 ° 0 min 0,000 mm 0,0 UV-I 32 W/m² 17,2 °C 19,4 °C 17,7 km/h (3 Bft) 95,97 %
30.08.2026 18:50 19,4 °C 87 % 1009,0 hPa 0,0 mm 3,6 km/h (1 Bft) SW 215 ° 0 min 0,000 mm 0,0 UV-I 32 W/m² 17,2 °C 19,4 °C 12,9 km/h (3 Bft) 97,35 %
30.08.2026 18:45 19,4 °C 87 % 1009,1 hPa 0,0 mm 4,7 km/h (1 Bft) W 277 ° 0 min 0,000 mm 0,0 UV-I 30 W/m² 17,2 °C 19,4 °C 12,9 km/h (3 Bft) 99,12 %
30.08.2026 18:40 19,3 °C 87 % 1009,1 hPa 0,0 mm 0,8 km/h (0 Bft) W-SW 253 ° 0 min 0,000 mm 0,0 UV-I 30 W/m² 17,1 °C 19,3 °C 14,5 km/h (3 Bft) 98,40 %
30.08.2026 18:35 19,3 °C 86 % 1009,0 hPa 0,0 mm 2,3 km/h (1 Bft) S-SW 194 ° 0 min 0,000 mm 0,0 UV-I 21 W/m² 16,9 °C 19,3 °C 9,7 km/h (2 Bft) 99,13 %
30.08.2026 18:30 19,5 °C 86 % 1009,0 hPa 0,0 mm 1,6 km/h (1 Bft) W 265 ° 0 min 0,000 mm 0,0 UV-I 22 W/m² 17,1 °C 19,5 °C 9,7 km/h (2 Bft) 100,00 %
30.08.2026 18:25 19,6 °C 87 % 1008,9 hPa 0,0 mm 2,4 km/h (1 Bft) W-SW 242 ° 0 min 0,000 mm 0,0 UV-I 44 W/m² 17,4 °C 19,6 °C 6,4 km/h (2 Bft) 99,19 %
30.08.2026 18:20 19,6 °C 87 % 1008,8 hPa 0,0 mm 1,1 km/h (1 Bft) W-SW 254 ° 0 min 0,000 mm 0,0 UV-I 42 W/m² 17,4 °C 19,6 °C 6,4 km/h (2 Bft) 99,12 %
30.08.2026 18:10 19,4 °C 87 % 1008,8 hPa 0,0 mm 0,3 km/h (0 Bft) W 261 ° 0 min 0,000 mm 0,0 UV-I 44 W/m² 17,2 °C 19,4 °C 4,8 km/h (1 Bft) 100,00 %
30.08.2026 18:05 19,4 °C 88 % 1008,8 hPa 0,0 mm 0,0 km/h (0 Bft) SW 227 ° 0 min 0,000 mm 0,0 UV-I 33 W/m² 17,4 °C 19,4 °C 0,0 km/h (0 Bft) 96,55 %
30.08.2026 18:00 19,4 °C 87 % 1008,8 hPa 0,0 mm 0,1 km/h (0 Bft) W 277 ° 0 min 0,026 mm 0,0 UV-I 33 W/m² 17,2 °C 19,4 °C 1,6 km/h (1 Bft) 96,46 %
30.08.2026 17:55 19,3 °C 87 % 1008,7 hPa 0,0 mm 0,0 km/h (0 Bft) SW 229 ° 0 min 0,000 mm 0,0 UV-I 38 W/m² 17,1 °C 19,3 °C 0,0 km/h (0 Bft) 97,39 %
30.08.2026 17:50 19,3 °C 88 % 1008,7 hPa 0,0 mm 0,0 km/h (0 Bft) W-SW 247 ° 0 min 0,000 mm 0,0 UV-I 41 W/m² 17,3 °C 19,3 °C 1,6 km/h (1 Bft) 96,52 %
30.08.2026 17:45 19,3 °C 88 % 1008,7 hPa 0,0 mm 0,3 km/h (0 Bft) S-SW 211 ° 0 min 0,000 mm 0,0 UV-I 42 W/m² 17,3 °C 19,3 °C 3,2 km/h (1 Bft) 100,00 %
30.08.2026 17:40 19,3 °C 88 % 1008,7 hPa 0,0 mm 0,0 km/h (0 Bft) W 267 ° 0 min 0,000 mm 0,0 UV-I 46 W/m² 17,3 °C 19,3 °C 1,6 km/h (1 Bft) 99,11 %
30.08.2026 17:35 19,3 °C 88 % 1008,6 hPa 0,0 mm 0,2 km/h (0 Bft) W-SW 248 ° 0 min 0,000 mm 0,0 UV-I 43 W/m² 17,3 °C 19,3 °C 3,2 km/h (1 Bft) 99,20 %
30.08.2026 17:30 19,2 °C 89 % 1008,6 hPa 0,0 mm 0,1 km/h (0 Bft) W-SW 248 ° 0 min 0,000 mm 0,0 UV-I 36 W/m² 17,3 °C 19,2 °C 1,6 km/h (1 Bft) 99,11 %
30.08.2026 17:25 19,2 °C 88 % 1008,5 hPa 0,0 mm 0,1 km/h (0 Bft) N 360 ° 0 min 0,000 mm 0,0 UV-I 33 W/m² 17,2 °C 19,2 °C 3,2 km/h (1 Bft) 100,00 %
30.08.2026 17:20 19,3 °C 88 % 1008,6 hPa 0,0 mm 1,1 km/h (1 Bft) W-SW 248 ° 0 min 0,000 mm 0,0 UV-I 32 W/m² 17,3 °C 19,3 °C 11,3 km/h (2 Bft) 98,39 %
30.08.2026 17:15 19,3 °C 89 % 1008,5 hPa 0,0 mm 0,1 km/h (0 Bft) W-SW 246 ° 0 min 0,000 mm 0,0 UV-I 35 W/m² 17,4 °C 19,3 °C 1,6 km/h (1 Bft) 100,00 %
30.08.2026 17:10 19,3 °C 89 % 1008,5 hPa 0,0 mm 0,6 km/h (0 Bft) W-SW 254 ° 0 min 0,000 mm 0,0 UV-I 32 W/m² 17,4 °C 19,3 °C 4,8 km/h (1 Bft) 98,26 %
30.08.2026 17:05 19,3 °C 89 % 1008,4 hPa 0,0 mm 0,3 km/h (0 Bft) W-SW 242 ° 0 min 0,000 mm 0,0 UV-I 41 W/m² 17,4 °C 19,3 °C 4,8 km/h (1 Bft) 98,37 %
30.08.2026 17:00 19,4 °C 90 % 1008,4 hPa 0,0 mm 1,6 km/h (1 Bft) S-SO 167 ° 0 min 0,025 mm 0,0 UV-I 35 W/m² 17,7 °C 19,4 °C 8,0 km/h (2 Bft) 97,32 %
30.08.2026 16:55 19,2 °C 90 % 1008,4 hPa 0,0 mm 7,7 km/h (2 Bft) W-SW 251 ° 0 min 0,000 mm 0,0 UV-I 33 W/m² 17,5 °C 19,2 °C 19,3 km/h (3 Bft) 96,00 %
30.08.2026 16:50 19,3 °C 90 % 1008,3 hPa 0,0 mm 9,1 km/h (2 Bft) W-SW 240 ° 0 min 0,000 mm 0,0 UV-I 41 W/m² 17,6 °C 19,3 °C 20,9 km/h (4 Bft) 93,75 %
30.08.2026 16:45 19,3 °C 90 % 1008,2 hPa 0,0 mm 4,0 km/h (1 Bft) W-SW 258 ° 0 min 0,000 mm 0,0 UV-I 46 W/m² 17,6 °C 19,3 °C 17,7 km/h (3 Bft) 96,46 %
30.08.2026 16:40 19,3 °C 90 % 1008,2 hPa 0,0 mm 4,6 km/h (1 Bft) SW 221 ° 0 min 0,000 mm 0,0 UV-I 47 W/m² 17,6 °C 19,3 °C 12,9 km/h (3 Bft) 99,14 %
30.08.2026 16:35 19,2 °C 90 % 1008,1 hPa 0,0 mm 2,1 km/h (1 Bft) W-SW 240 ° 0 min 0,000 mm 0,0 UV-I 41 W/m² 17,5 °C 19,2 °C 9,7 km/h (2 Bft) 99,19 %
30.08.2026 16:30 19,3 °C 90 % 1008,0 hPa 0,0 mm 0,6 km/h (0 Bft) W 265 ° 0 min 0,000 mm 0,0 UV-I 57 W/m² 17,6 °C 19,3 °C 6,4 km/h (2 Bft) 100,00 %
30.08.2026 16:25 18,9 °C 90 % 1008,0 hPa 0,0 mm 5,5 km/h (1 Bft) S 188 ° 0 min 0,000 mm 0,0 UV-I 61 W/m² 17,2 °C 18,9 °C 12,9 km/h (3 Bft) 99,12 %
30.08.2026 16:20 18,9 °C 90 % 1008,0 hPa 0,0 mm 2,8 km/h (1 Bft) SW 229 ° 0 min 0,000 mm 0,0 UV-I 42 W/m² 17,2 °C 18,9 °C 9,7 km/h (2 Bft) 97,56 %
30.08.2026 16:15 18,9 °C 89 % 1007,9 hPa 0,0 mm 0,9 km/h (0 Bft) SW 230 ° 0 min 0,000 mm 0,0 UV-I 38 W/m² 17,0 °C 18,9 °C 4,8 km/h (1 Bft) 98,23 %
30.08.2026 16:10 18,9 °C 89 % 1007,9 hPa 0,0 mm 4,3 km/h (1 Bft) W-SW 238 ° 0 min 0,000 mm 0,0 UV-I 33 W/m² 17,0 °C 18,9 °C 12,9 km/h (3 Bft) 99,21 %
30.08.2026 16:05 19,1 °C 88 % 1007,7 hPa 0,0 mm 6,7 km/h (2 Bft) S-SW 208 ° 0 min 0,000 mm 0,0 UV-I 33 W/m² 17,1 °C 19,1 °C 17,7 km/h (3 Bft) 99,12 %
30.08.2026 16:00 19,2 °C 87 % 1007,6 hPa 0,0 mm 10,6 km/h (2 Bft) W 265 ° 0 min 0,051 mm 0,0 UV-I 29 W/m² 17,0 °C 19,2 °C 22,5 km/h (4 Bft) 94,69 %
30.08.2026 15:55 19,7 °C 85 % 1007,6 hPa 0,0 mm 12,3 km/h (3 Bft) W 276 ° 0 min 0,000 mm 0,0 UV-I 28 W/m² 17,1 °C 19,7 °C 29,0 km/h (5 Bft) 97,58 %
30.08.2026 15:50 20,4 °C 84 % 1007,6 hPa 0,0 mm 13,6 km/h (3 Bft) W 267 ° 0 min 0,000 mm 0,0 UV-I 29 W/m² 17,6 °C 20,4 °C 29,0 km/h (5 Bft) 95,54 %
30.08.2026 15:45 21,1 °C 81 % 1007,6 hPa 0,2 mm 0,9 km/h (0 Bft) W-SW 238 ° 0 min 0,000 mm 0,0 UV-I 21 W/m² 17,7 °C 21,1 °C 11,3 km/h (2 Bft) 98,37 %
30.08.2026 15:40 21,6 °C 80 % 1007,1 hPa 0,0 mm 0,1 km/h (0 Bft) W-SW 251 ° 0 min 0,000 mm 0,0 UV-I 26 W/m² 18,0 °C 21,6 °C 1,6 km/h (1 Bft) 99,12 %
30.08.2026 15:35 21,6 °C 81 % 1007,0 hPa 0,0 mm 0,0 km/h (0 Bft) W 261 ° 0 min 0,000 mm 0,0 UV-I 58 W/m² 18,2 °C 21,6 °C 3,2 km/h (1 Bft) 98,21 %
30.08.2026 15:30 21,6 °C 81 % 1007,0 hPa 0,0 mm 0,0 km/h (0 Bft) W-SW 254 ° 0 min 0,000 mm 0,0 UV-I 66 W/m² 18,2 °C 21,6 °C 0,0 km/h (0 Bft) 97,56 %
30.08.2026 15:25 21,6 °C 79 % 1006,9 hPa 0,0 mm 0,0 km/h (0 Bft) S-SW 209 ° 0 min 0,000 mm 0,0 UV-I 54 W/m² 17,8 °C 21,6 °C 0,0 km/h (0 Bft) 97,32 %
30.08.2026 15:20 21,9 °C 79 % 1006,9 hPa 0,0 mm 0,0 km/h (0 Bft) S-SO 156 ° 0 min 0,000 mm 0,0 UV-I 49 W/m² 18,1 °C 21,9 °C 0,0 km/h (0 Bft) 100,00 %
30.08.2026 15:15 22,2 °C 79 % 1006,9 hPa 0,0 mm 0,0 km/h (0 Bft) SW 234 ° 0 min 0,000 mm 0,0 UV-I 73 W/m² 18,4 °C 22,2 °C 0,0 km/h (0 Bft) 100,00 %
30.08.2026 15:10 22,1 °C 80 % 1006,7 hPa 0,0 mm 0,0 km/h (0 Bft) S-SW 204 ° 0 min 0,000 mm 0,0 UV-I 82 W/m² 18,5 °C 22,1 °C 0,0 km/h (0 Bft) 98,28 %
30.08.2026 15:05 22,1 °C 79 % 1006,8 hPa 0,0 mm 0,1 km/h (0 Bft) SW 229 ° 0 min 0,051 mm 0,0 UV-I 74 W/m² 18,3 °C 22,1 °C 6,4 km/h (2 Bft) 100,00 %
30.08.2026 15:00 22,3 °C 79 % 1006,8 hPa 0,0 mm 0,1 km/h (0 Bft) W 271 ° 0 min 0,000 mm 0,0 UV-I 70 W/m² 18,5 °C 22,3 °C 4,8 km/h (1 Bft) 95,97 %
30.08.2026 14:55 22,6 °C 78 % 1006,7 hPa 0,0 mm 0,6 km/h (0 Bft) S-SW 209 ° 0 min 0,000 mm 0,0 UV-I 84 W/m² 18,6 °C 22,6 °C 11,3 km/h (2 Bft) 97,35 %
30.08.2026 14:50 22,8 °C 78 % 1006,6 hPa 0,0 mm 1,0 km/h (0 Bft) S 184 ° 0 min 0,000 mm 0,0 UV-I 113 W/m² 18,8 °C 22,8 °C 19,3 km/h (3 Bft) 97,35 %
30.08.2026 14:45 22,4 °C 78 % 1006,5 hPa 0,0 mm 1,3 km/h (1 Bft) S-SW 198 ° 0 min 0,000 mm 0,0 UV-I 109 W/m² 18,4 °C 22,4 °C 16,1 km/h (3 Bft) 97,58 %
30.08.2026 14:40 22,1 °C 80 % 1006,6 hPa 0,0 mm 1,0 km/h (0 Bft) W-SW 254 ° 0 min 0,000 mm 0,0 UV-I 91 W/m² 18,5 °C 22,1 °C 11,3 km/h (2 Bft) 96,46 %
30.08.2026 14:35 22,1 °C 79 % 1006,5 hPa 0,0 mm 0,2 km/h (0 Bft) S-SW 199 ° 0 min 0,000 mm 0,0 UV-I 78 W/m² 18,3 °C 22,1 °C 4,8 km/h (1 Bft) 99,19 %
30.08.2026 14:30 22,1 °C 79 % 1006,4 hPa 0,0 mm 0,1 km/h (0 Bft) S-SW 198 ° 0 min 0,000 mm 0,0 UV-I 75 W/m² 18,3 °C 22,1 °C 4,8 km/h (1 Bft) 99,11 %
30.08.2026 14:25 21,8 °C 81 % 1006,4 hPa 0,0 mm 0,0 km/h (0 Bft) W-SW 250 ° 0 min 0,000 mm 0,0 UV-I 93 W/m² 18,4 °C 21,8 °C 0,0 km/h (0 Bft) 99,12 %
30.08.2026 14:20 21,4 °C 82 % 1006,3 hPa 0,0 mm 0,0 km/h (0 Bft) S 182 ° 0 min 0,000 mm 0,0 UV-I 75 W/m² 18,2 °C 21,4 °C 0,0 km/h (0 Bft) 100,00 %
30.08.2026 14:15 21,2 °C 81 % 1006,4 hPa 0,0 mm 0,0 km/h (0 Bft) SW 231 ° 0 min 0,000 mm 0,0 UV-I 69 W/m² 17,8 °C 21,2 °C 0,0 km/h (0 Bft) 98,23 %
30.08.2026 14:10 21,4 °C 81 % 1006,3 hPa 0,0 mm 0,0 km/h (0 Bft) SW 236 ° 0 min 0,000 mm 0,0 UV-I 66 W/m² 18,0 °C 21,4 °C 0,0 km/h (0 Bft) 99,14 %
30.08.2026 14:05 21,2 °C 81 % 1006,3 hPa 0,0 mm 0,0 km/h (0 Bft) W-SW 253 ° 0 min 0,000 mm 0,0 UV-I 78 W/m² 17,8 °C 21,2 °C 0,0 km/h (0 Bft) 100,00 %
30.08.2026 14:00 21,0 °C 82 % 1006,3 hPa 0,0 mm 0,1 km/h (0 Bft) W-SW 237 ° 0 min 0,051 mm 0,0 UV-I 70 W/m² 17,8 °C 21,0 °C 3,2 km/h (1 Bft) 97,60 %
_ Min-Zeit 06:20 14:45 14:00 - 14:05 - - - - - - 06:20 06:20 14:05 16:50
Minimum _ 14,9 °C 78 % 1006,3 hPa - 0,0 km/h (0 Bft) - - - - - - 13,8 °C 14,9 °C 0,0 km/h (0 Bft) 93,75 %
_ Max-Zeit 14:50 06:35 22:55 09:40 15:50 - - 14:00 14:00 14:00 12:35 12:45 14:50 15:50 14:05
Maximum _ 22,8 °C 94 % 1010,7 hPa 3,6 mm 13,6 km/h
W (3 Bft)
- - 0 min 0,051 mm 0,0 UV-I 120 W/m² 18,9 °C 22,8 °C 29,0 km/h
W (5 Bft)
100,00 %
Durchschnitt _ 18,1 °C 90 % 1008,6 hPa #5,0 mm 0,8 km/h (0 Bft) S - #0 min. #0,203 mm 0,0 UV-I 51 W/m² 16,3 °C 18,1 °C 4,0 km/h (1 Bft) 98,19 %
Alle Angaben ohne Gewähr !